Regional Weather Roundup
Issued by NWS

Home | Current Version | Previous Version | Graphics & Text | Print | Product List | Glossary On
Versions: 1 2 3 4 5 6 7 8 9 10 11 12 13 14 15 16 17 18 19 20 21 22 23 24 25 26 27 28
000
ASUS45 KTFX 201110
RWRMT
MONTANA REGIONAL WEATHER ROUNDUP
NATIONAL WEATHER SERVICE GREAT FALLS MT
400 AM MST FRI JAN 20 2017

NOTE: "FAIR" INDICATES FEW OR NO CLOUDS BELOW 12000 FEET WITH NO
SIGNIFICANT WEATHER AND/OR OBSTRUCTIONS TO VISIBILITY.

MTZ001>007-043-201200-
WEST OF THE DIVIDE

CITY           SKY/WX    TMP DP  RH WIND       PRES   REMARKS
KALISPELL      CLOUDY    27  25  92 CALM      29.51F FOG
MISSOULA       FOG       32  32 100 CALM      29.55F VSB 1/4
BUTTE          CLOUDY    21  19  92 SW3       29.51S
MULLAN PASS    LGT SNOW  26  22  84 S8        29.44F FOG     WCI  18
ANACONDA         N/A     28  27  93 CALM      29.51F
DEER LODGE       N/A     30  30 100 CALM      29.54F
EUREKA           N/A     36  30  80 SE6       29.50F WCI  31
HAMILTON         N/A     28  28 100 CALM      29.54F VSB 0
PLAINS           N/A     29  24  81 CALM      29.58F VSB 0
RONAN            N/A     20  17  88 W1        29.59F
$$

MTZ008-052>055-201200-
SOUTHWEST MONTANA

CITY           SKY/WX    TMP DP  RH WIND       PRES   REMARKS
BOZEMAN        CLOUDY    29  26  89 CALM      29.52F
DILLON         CLOUDY    27  14  58 S10       29.52S WCI  17
W YELLOWSTONE  CLOUDY    25  23  93 SW3       29.55F
ENNIS          CLOUDY    30  23  74 S13       29.57S WCI  20
TWIN BRIDGES     N/A     23  14  68 E3        29.58S
$$

MTZ009-010-012-014-046-048-049-054-201200-
EAST SLOPES AND CENTRAL MONTANA

CITY           SKY/WX    TMP DP  RH WIND       PRES   REMARKS
CUT BANK       MOCLDY    32  21  64 W16       29.41F WCI  21
GREAT FALLS    CLOUDY    34  25  69 SW14      29.45F WCI  25
MALMSTROM AFB  CLOUDY    35  27  74 SW13      29.46F WCI  26
HELENA         CLOUDY    29  26  89 CALM      29.51F
AUGUSTA          N/A     32  19  58 W12       29.43F WCI  23
BOWMANS CRNR     N/A     28  24  84 SW18      29.43F WCI  15
CHOTEAU          N/A     30  21  69 SW6       29.44F WCI  24
CONRAD           N/A     32  28  85 W7        29.49F WCI  26
POWER          MOCLDY    27  23  85 SW8       29.43F WCI  18
RAYNESFORD     CLOUDY    39  23  51 W16       29.45F WCI  30
ULM              N/A     32  25  76 MISG      29.47F
$$

MTZ011-013-016-021-045-047-050-051-201200-
NORTH CENTRAL MONTANA

CITY           SKY/WX    TMP DP  RH WIND       PRES   REMARKS
HAVRE          CLOUDY    34  30  85 SW12      29.44F WCI  25
LEWISTOWN      CLOUDY    34  30  85 S5        29.46F
CHINOOK          N/A     34  30  86 CALM      29.45S
DENTON           N/A     38  28  69 E3        29.43S
FORT BENTON      N/A     36  28  75 MISG      29.47S
GEYSER         CLOUDY    35  26  68 N3        29.44S
GRASS RANGE    CLOUDY    36  33  87 SW8       29.43F WCI  30
JUDITH GAP     MOCLDY    34  28  76 W12       29.46S WCI  26
ROY            CLOUDY    38  32  78 MISG      29.45R
STANFORD       CLOUDY    36  25  64 W5        29.45S
WINIFRED       CLOUDY    36  30  79 S5        29.45S
$$

MTZ017>020-022>027-061-062-201200-
NORTHEAST MONTANA

CITY           SKY/WX    TMP DP  RH WIND       PRES   REMARKS
GLASGOW        CLOUDY    27  23  85 NW7       29.43F WCI  19
JORDAN           N/A     35  33  92 W8        29.45S WCI  29
SIDNEY         CLOUDY    17  14  88 S6        29.42F WCI   9
WOLF POINT     CLOUDY    18  15  88 SW3       29.44S FOG
PLENTYWOOD       N/A     25  23  93 NW6       29.39S WCI  18
POPLAR           N/A     18  16  93 SW3       29.44S
SCOBEY           N/A     21  15  78 CALM      29.43F VSB 0
$$

MTZ028>42-056>058-201200-
SOUTHCENTRAL AND SOUTHEAST MONTANA

CITY           SKY/WX    TMP DP  RH WIND       PRES   REMARKS
BAKER          CLOUDY    20  17  88 NW5       29.43F
BILLINGS       LGT RAIN  33  30  88 SW14      29.48F WCI  23
LIVINGSTON     CLOUDY    33  29  85 NW6       29.49F WCI  28
MILES CITY     CLOUDY    19  15  84 S6        29.46F WCI  11
BIG TIMBER     CLOUDY    36  25  64 W14       29.50F WCI  27
EKALAKA          N/A     26  18  72 CALM      29.46F
FORSYTH          N/A     34  32  93 SW6       29.47S WCI  29
HARLOWTON      CLOUDY    35  26  70 W16       29.47S WCI  25
LAUREL           N/A     32  22  67 S3        29.52S
$$

REGIONAL REPORTS...DAKOTAS

CITY           SKY/WX    TMP DP  RH WIND       PRES   REMARKS
WILLISTON      CLOUDY    14  12  92 CALM      29.40F FOG
MINOT          CLOUDY    18  15  88 SE5       29.39R
DICKINSON      CLOUDY    19  16  88 NW6       29.36F WCI  11
BEACH            N/A     27  25  93 W9        29.43F WCI  17
CROSBY           N/A     16  14  93 S8        29.40S WCI   5
TIOGA            N/A     16  16 100 SW3       29.40R
WATFORD CITY     N/A     18  18 100 SW3       29.40S
BISMARCK       FOG       22  21  96 CALM      29.44F VSB 1/4
GRAND FORKS    FOG       35  33  92 SE8       29.52F VSB 3/4 WCI  29
FARGO          CLOUDY    49  36  61 SE10      29.53F HAZE
BUFFALO SD       N/A     27  20  75 W20       29.32F WCI  13
RAPID CITY     CLOUDY    28  19  69 NW9       29.37F WCI  19
$$

REGIONAL REPORTS...WYOMING/IDAHO/WASHINGTON

CITY           SKY/WX    TMP DP  RH WIND       PRES   REMARKS
GILLETTE       CLOUDY    31  25  78 W14       29.45F WCI  21
SHERIDAN       CLOUDY    35  30  82 W16       29.48F WCI  25
BUFFALO WY     CLOUDY    33  25  72 NW12      29.46F WCI  24
CODY           CLOUDY    31  22  69 CALM      29.49F
YELLOWSTONE LA   N/A     20  18  92 CALM      29.55F
IDAHO FALLS    CLOUDY    28  27  96 CALM      29.61S
SALMON         CLOUDY    23  23 100 CALM      29.57F VSB 1/4
BOISE          MOCLDY    34  29  82 SE13      29.54F WCI  25
SPOKANE        FRZ DRZL  29  28  96 CALM      29.48F FOG
$$

REGIONAL REPORTS...ALBERTA

CITY           SKY/WX    TMP DP  RH WIND       PRES   REMARKS
EDMONTON       CLEAR     28  18  64 SW7       29.30S WCI  21
CALGARY        PTCLDY    32  16  51 W3        29.34F
LETHBRIDGE     PTCLDY    36  25  64 SW23G30   29.38F WCI  24
MEDICINE HAT   MOCLDY    32  27  80 S12       29.38S WCI  23
WATERTON GATE    N/A     36  18  48 SW23G31     N/A  WCI  24
MILK RIVER       N/A     30  25  80 W10         N/A  WCI  21
$$

REGIONAL REPORTS...SASKATCHEWAN

CITY           SKY/WX    TMP DP  RH WIND       PRES   REMARKS
SWIFT CURRENT  CLOUDY    37  27  65 W18G25    29.33F WCI  27
REGINA         CLEAR     18  16  93 E7        29.37S WCI   8
SASKATOON      CLOUDY    34  30  86 S8        29.31F WCI  27
CYPRESS HILLS    N/A     34  18  51 W9          N/A  WCI  26
VAL MARIE        N/A     32  28  86 W7          N/A  WCI  26
ROCKGLEN         N/A     32  28  86 W12         N/A  WCI  23
ASSINIBOIA       N/A     18  16  93 S3          N/A
$$




USA.gov is the U.S. government's official web portal to all federal, state and local government web resources and services.